EW8570 Weather Reports


time (UTC)temp
C
wind
direction
speed
KPH
gust
KPH
rain 1hr
cm
rain 24hr
cm
rain mn
cm
humidity
%
barometer
mb
20260508105554 4 53 0.0 4.8 0.00 0.03 0.00 82 1015.4
20260508105045 5 53 0.0 3.2 0.00 0.03 0.00 82 1015.3
20260508104534 5 53 0.0 4.8 0.00 0.03 0.00 81 1015.2
20260508104031 5 53 0.0 4.8 0.00 0.03 0.00 82 1015.1
20260508103911 5 286 0.0 4.8 0.00 0.03 0.00 81 1014.8
20260508103553 5 221 0.0 4.8 0.00 0.03 0.00 81 1015.0
20260508102516 5 296 0.0 3.2 0.00 0.03 0.00 80 1014.9
20260508102017 5 296 0.0 3.2 0.00 0.03 0.00 80 1014.9
20260508101516 5 12 0.0 3.2 0.00 0.03 0.00 79 1014.8
20260508101303 6 12 0.0 1.6 0.00 0.03 0.00 77 1014.7
20260508101031 6 12 0.0 0.0 0.00 0.03 0.00 78 1014.7
20260508100008 6 12 0.0 1.6 0.00 0.03 0.00 77 1014.5
20260508095824 6 12 0.0 3.2 0.00 0.03 0.00 78 1014.4
20260508095530 6 12 0.0 3.2 0.00 0.03 0.00 78 1014.5
20260508094508 6 12 1.6 3.2 0.00 0.03 0.00 77 1014.4
20260508094018 6 355 1.6 3.2 0.00 0.03 0.00 77 1014.4
20260508093459 6 94 1.6 4.8 0.00 0.03 0.00 76 1014.4
20260508093006 7 72 1.6 4.8 0.00 0.03 0.00 74 1014.3
20260508092759 7 341 1.6 8.0 0.00 0.03 0.00 69 1014.2
20260508092735 7 57 3.2 8.0 0.00 0.03 0.00 71 1014.1
20260508092511 8 61 1.6 4.8 0.00 0.03 0.00 72 1014.2
20260508092043 8 37 3.2 12.9 0.00 0.03 0.00 70 1014.1
20260508091609 8 346 3.2 12.9 0.00 0.03 0.00 68 1014.2
20260508090000 8 232 3.2 6.4 0.00 0.03 0.00 70 1014.2
20260508085458 8 300 3.2 9.7 0.00 0.03 0.00 69 1014.1
20260508084951 7 303 1.6 9.7 0.00 0.03 0.00 71 1014.1
20260508084458 7 236 1.6 6.4 0.00 0.03 0.00 72 1014.0
20260508083951 7 132 1.6 6.4 0.00 0.03 0.00 72 1013.9
20260508083738 8 350 1.6 4.8 0.00 0.03 0.00 73 1013.6
20260508083616 8 292 1.6 4.8 0.00 0.03 0.00 71 1013.6
20260508083501 7 351 1.6 3.2 0.00 0.03 0.00 73 1013.9
20260508083030 7 351 0.0 3.2 0.00 0.03 0.00 72 1013.9
20260508082023 8 350 1.6 4.8 0.00 0.03 0.00 72 1013.5
20260508080949 8 221 0.0 4.8 0.00 0.03 0.00 71 1013.5
20260508080454 8 59 1.6 3.2 0.00 0.03 0.00 70 1013.5
20260508075949 8 59 1.6 3.2 0.00 0.03 0.00 69 1013.4
20260508075449 9 96 1.6 3.2 0.00 0.05 0.00 68 1013.4
20260508075338 11 327 1.6 4.8 0.00 0.05 0.00 61 1013.3
20260508075315 10 60 1.6 4.8 0.00 0.05 0.00 66 1013.4
20260508075242 10 32 1.6 4.8 0.00 0.05 0.00 67 1013.3
20260508075151 10 27 1.6 4.8 0.00 0.05 0.00 64 1013.2
20260508074959 9 9 1.6 4.8 0.00 0.05 0.00 67 1013.3
20260508074535 9 9 1.6 4.8 0.00 0.05 0.00 67 1013.3
20260508074053 9 9 0.0 3.2 0.00 0.05 0.00 66 1013.3
20260508073110 10 60 1.6 4.8 0.00 0.05 0.00 66 1013.4
20260508072332 11 306 1.6 4.8 0.00 0.05 0.00 61 1013.2
20260508072001 10 346 0.0 3.2 0.00 0.05 0.00 66 1013.2
20260508071531 10 329 0.0 3.2 0.00 0.05 0.00 66 1013.2
20260508071103 10 329 1.6 4.8 0.00 0.05 0.00 64 1013.1
20260508070058 11 327 1.6 4.8 0.00 0.05 0.00 61 1013.2
20260508064439 11 94 0.0 3.2 0.00 0.05 0.00 61 1013.3
20260508063943 11 76 1.6 4.8 0.00 0.05 0.00 61 1013.3
20260508063437 11 76 1.6 6.4 0.00 0.05 0.00 61 1013.3
20260508062939 11 34 1.6 6.4 0.00 0.05 0.00 60 1013.1
20260508062448 12 31 1.6 6.4 0.00 0.05 0.00 62 1013.1
20260508062317 12 355 1.6 9.7 0.00 0.05 0.00 59 1013.2
20260508061957 12 12 1.6 6.4 0.00 0.05 0.00 60 1013.2
20260508060934 12 342 3.2 19.3 0.00 0.05 0.00 59 1013.2
20260508060801 13 311 4.8 12.9 0.00 0.08 0.00 60 1012.3
20260508060458 12 345 4.8 19.3 0.00 0.05 0.00 59 1013.3
20260508060012 12 38 4.8 12.9 0.00 0.05 0.00 59 1013.1
20260508055537 12 53 4.8 14.5 0.00 0.05 0.00 59 1013.3
20260508054944 12 327 4.8 14.5 0.00 0.05 0.00 59 1013.3
20260508054517 12 38 3.2 12.9 0.00 0.05 0.00 59 1013.2
20260508054037 11 146 1.6 6.4 0.00 0.05 0.00 64 1013.0
20260508053933 12 223 4.8 16.1 0.00 0.05 0.00 60 1013.2
20260508053842 12 155 1.6 6.4 0.00 0.05 0.00 64 1013.0
20260508053837 13 49 3.2 8.0 0.00 0.08 0.00 60 1012.4
20260508053444 12 342 4.8 16.1 0.00 0.05 0.00 59 1013.3
20260508053008 12 324 4.8 17.7 0.00 0.05 0.00 60 1013.3
20260508052528 12 57 4.8 17.7 0.00 0.05 0.00 61 1013.2
20260508052057 11 286 3.2 14.5 0.00 0.05 0.00 62 1013.0
20260508051614 11 41 3.2 14.5 0.00 0.05 0.00 63 1013.0
20260508045952 13 315 3.2 9.7 0.00 0.08 0.00 61 1012.4
20260508045922 12 240 1.6 6.4 0.00 0.05 0.00 62 1012.9
20260508045914 13 44 4.8 17.7 0.00 0.08 0.08 61 1012.4
20260508045842 13 267 6.4 17.7 0.00 0.08 0.08 62 1012.4
20260508045814 13 338 4.8 14.5 0.00 0.08 0.08 62 1012.3
20260508045444 13 273 3.2 12.9 0.00 0.05 0.00 60 1012.8
20260508045020 13 336 3.2 12.9 0.00 0.05 0.00 59 1012.7
20260508044547 13 61 3.2 12.9 0.00 0.05 0.00 60 1012.7
20260508044102 13 30 4.8 12.9 0.00 0.05 0.00 59 1012.5
20260508043615 13 26 4.8 12.9 0.00 0.05 0.00 59 1012.5
20260508043135 13 55 3.2 12.9 0.00 0.08 0.00 60 1012.4
20260508041532 13 221 4.8 12.9 0.00 0.08 0.00 60 1012.4
20260508041044 13 319 3.2 8.0 0.00 0.08 0.00 62 1012.4
20260508034858 13 304 4.8 14.5 0.00 0.08 0.08 61 1012.2
20260508033811 13 255 4.8 14.5 0.00 0.08 0.08 61 1012.2
20260508033304 13 342 4.8 14.5 0.00 0.08 0.08 61 1012.1
20260508032758 13 309 4.8 17.7 0.00 0.08 0.08 62 1012.1
20260508032254 13 15 6.4 17.7 0.00 0.08 0.08 62 1012.1
20260508031742 12 321 4.8 16.1 0.00 0.08 0.08 63 1011.9
20260508031604 12 279 3.2 14.5 0.00 0.13 0.08 65 1011.9
20260508031248 12 56 3.2 16.1 0.00 0.08 0.08 64 1012.0
20260508030810 12 282 3.2 11.3 0.00 0.10 0.08 66 1011.9
20260508025723 12 213 3.2 14.5 0.00 0.15 0.08 64 1012.0
20260508025220 12 298 3.2 12.9 0.00 0.18 0.08 65 1011.9
20260508024900 12 342 3.2 12.9 0.00 0.23 0.08 66 1011.6
20260508024726 12 296 4.8 19.3 0.00 0.20 0.08 65 1011.9
20260508024238 12 286 4.8 19.3 0.00 0.20 0.08 65 1011.8
20260508023800 12 49 3.2 12.9 0.00 0.23 0.08 67 1011.8
20260508022720 12 300 3.2 11.3 0.00 0.23 0.08 67 1011.6
20260508022226 12 294 3.2 11.3 0.00 0.23 0.08 65 1011.6
20260508022158 13 300 3.2 9.7 0.00 0.25 0.08 65 1011.5
20260508022133 13 273 3.2 8.0 0.00 0.25 0.08 64 1010.7
20260508022049 13 344 3.2 8.0 0.00 0.25 0.08 63 1010.3
20260508021727 12 321 1.6 6.4 0.00 0.25 0.08 66 1011.6
20260508021243 12 335 1.6 4.8 0.00 0.25 0.08 66 1011.6
20260508020750 12 316 1.6 6.4 0.00 0.25 0.08 65 1011.5
20260508020303 13 307 1.6 6.4 0.00 0.25 0.08 65 1011.5
20260508015426 14 284 1.6 6.4 0.00 0.25 0.08 61 1010.4
20260508015223 13 313 3.2 12.9 0.00 0.25 0.08 65 1011.4
20260508015119 14 295 3.2 6.4 0.00 0.25 0.08 61 1010.4
20260508014732 13 313 3.2 12.9 0.00 0.25 0.08 64 1011.3
20260508014256 13 259 3.2 8.0 0.00 0.25 0.08 65 1011.2
20260508013808 13 308 3.2 14.5 0.00 0.25 0.08 64 1011.1
20260508013328 13 351 4.8 14.5 0.00 0.25 0.08 64 1011.0
20260508012819 13 325 3.2 14.5 0.00 0.25 0.08 64 1010.8
20260508011745 13 196 3.2 8.0 0.00 0.25 0.08 64 1010.7
20260508011259 13 316 3.2 8.0 0.00 0.25 0.08 64 1010.5
20260508010806 13 315 1.6 8.0 0.00 0.25 0.08 63 1010.4
20260508010326 13 309 3.2 8.0 0.00 0.25 0.08 64 1010.3
20260508005841 13 5 3.2 8.0 0.00 0.25 0.08 63 1010.3
20260508004815 13 298 1.6 4.8 0.00 0.25 0.08 63 1010.4
20260508004339 14 315 1.6 4.8 0.00 0.25 0.08 63 1010.5
20260508002704 14 308 3.2 8.0 0.00 0.25 0.08 61 1010.3
20260508002201 15 315 4.8 12.9 0.00 0.25 0.08 60 1010.3
20260508002116 16 0 8.0 22.5 0.00 0.25 0.08 64 1009.5
20260508001722 15 330 6.4 14.5 0.00 0.25 0.08 60 1010.4
20260508001251 15 331 4.8 14.5 0.00 0.25 0.08 59 1010.4
20260508000752 15 278 3.2 9.7 0.00 0.25 0.08 60 1010.3
20260508000206 15 355 3.2 11.3 0.00 0.25 0.08 59 1010.4
20260508000101 16 296 4.8 14.5 0.00 0.25 0.08 66 1009.3
20260507235953 16 336 8.0 25.7 0.00 0.25 0.08 61 1010.1
20260507235706 15 329 4.8 11.3 0.00 0.25 0.08 59 1010.3
20260507235615 16 20 6.4 17.7 0.00 0.25 0.08 61 1009.7
20260507235217 15 24 4.8 16.1 0.00 0.25 0.08 59 1010.5
20260507234747 15 317 4.8 16.1 0.00 0.25 0.08 60 1010.4
20260507234305 15 343 3.2 8.0 0.00 0.25 0.08 60 1010.3
20260507233723 16 344 4.8 14.5 0.00 0.25 0.08 60 1010.1
20260507233248 16 304 6.4 14.5 0.00 0.25 0.08 59 1010.1
20260507232813 16 355 6.4 17.7 0.00 0.25 0.08 60 1010.2
20260507231804 16 306 8.0 25.7 0.00 0.25 0.08 61 1009.9
20260507231320 16 351 8.0 19.3 0.00 0.25 0.08 61 1009.8
20260507230204 16 263 6.4 14.5 0.00 0.25 0.08 62 1009.7
20260507225726 16 312 6.4 14.5 0.00 0.25 0.08 63 1009.7
20260507225245 16 270 4.8 14.5 0.00 0.25 0.08 63 1009.7
20260507224808 16 335 6.4 22.5 0.00 0.25 0.08 65 1009.6
20260507223744 16 265 6.4 19.3 0.00 0.25 0.08 65 1009.5
20260507222651 16 313 4.8 14.5 0.00 0.25 0.08 66 1009.3
20260507222306 16 88 6.4 17.7 0.00 0.25 0.08 67 1008.9
20260507222157 16 34 4.8 12.9 0.00 0.25 0.08 67 1009.2
20260507221707 16 329 4.8 12.9 0.00 0.25 0.08 67 1009.1
20260507221233 16 5 4.8 14.5 0.00 0.25 0.08 67 1009.0
20260507220154 16 0 6.4 17.7 0.00 0.25 0.08 66 1008.9
20260507215648 16 342 8.0 16.1 0.00 0.25 0.08 66 1008.8
20260507215509 18 310 8.0 20.9 0.00 0.25 0.08 69 1007.9
20260507215430 17 15 8.0 16.1 0.00 0.25 0.08 69 1008.0
20260507215352 17 342 8.0 19.3 0.00 0.25 0.08 69 1008.2
20260507215329 18 332 8.0 17.7 0.00 0.25 0.08 68 1008.0
20260507215154 16 297 9.7 20.9 0.00 0.25 0.08 65 1008.9
20260507214718 17 320 9.7 22.5 0.00 0.25 0.08 65 1008.9
20260507214241 17 306 11.3 22.5 0.00 0.25 0.08 65 1008.8
20260507213701 17 282 11.3 22.5 0.00 0.25 0.08 65 1008.8
20260507213220 17 355 8.0 19.3 0.00 0.25 0.08 67 1008.6
20260507212741 17 321 6.4 16.1 0.00 0.25 0.08 68 1008.4
20260507212244 17 5 6.4 17.7 0.00 0.25 0.08 71 1008.3
20260507211759 17 28 8.0 17.7 0.00 0.25 0.08 69 1008.0
20260507210203 17 10 6.4 19.3 0.00 0.25 0.08 68 1008.2
20260507205128 18 38 8.0 17.7 0.00 0.25 0.08 69 1007.9
20260507204047 18 312 8.0 20.9 0.00 0.25 0.08 69 1007.9
20260507203554 18 306 8.0 17.7 0.00 0.25 0.08 70 1007.8
20260507203032 18 306 8.0 19.3 0.00 0.25 0.08 70 1007.8
20260507202524 17 116 8.0 19.3 0.00 0.25 0.08 74 1007.7
20260507202022 17 126 6.4 17.7 0.00 0.25 0.08 74 1007.8
20260507201522 17 110 8.0 20.9 0.00 0.25 0.08 75 1007.8
20260507201014 17 113 9.7 24.1 0.00 0.25 0.08 74 1007.7
20260507200516 17 28 6.4 19.3 0.00 0.25 0.08 78 1007.8
20260507195957 16 30 6.4 19.3 0.00 0.25 0.08 77 1007.9
20260507195456 16 0 4.8 14.5 0.00 0.25 0.08 78 1008.0
20260507195256 15 84 4.8 19.3 0.00 0.25 0.08 83 1008.4
20260507194959 16 59 4.8 14.5 0.00 0.25 0.08 80 1008.2
20260507194516 15 88 6.4 19.3 0.00 0.25 0.08 81 1008.3
20260507193423 15 91 3.2 9.7 0.00 0.25 0.08 84 1008.6
20260507192922 15 144 3.2 9.7 0.00 0.25 0.08 84 1008.6
20260507192426 14 103 3.2 6.4 0.00 0.25 0.08 84 1008.6
20260507191359 13 105 3.2 9.7 0.00 0.25 0.08 85 1008.8
20260507190859 13 30 4.8 9.7 0.00 0.25 0.08 85 1008.6
20260507190351 13 16 4.8 12.9 0.00 0.25 0.08 84 1008.8
20260507185850 13 24 6.4 12.9 0.00 0.25 0.08 84 1009.0
20260507185344 13 44 4.8 12.9 0.00 0.25 0.08 84 1009.0
20260507184850 13 36 4.8 12.9 0.00 0.25 0.08 83 1009.0
20260507184347 13 51 4.8 11.3 0.00 0.25 0.08 83 1009.3
20260507183847 13 38 6.4 12.9 0.00 0.25 0.08 83 1009.3
20260507183347 13 11 6.4 14.5 0.00 0.25 0.08 82 1008.9
20260507183305 14 5 6.4 17.7 0.00 0.25 0.08 80 1008.9
20260507182908 14 58 6.4 16.1 0.00 0.25 0.08 81 1009.1
20260507182426 14 300 8.0 17.7 0.00 0.25 0.08 81 1009.2
20260507181342 14 350 4.8 16.1 0.00 0.25 0.08 80 1009.1
20260507180846 14 339 8.0 20.9 0.00 0.25 0.08 80 1009.4
20260507180340 14 327 8.0 20.9 0.00 0.25 0.08 80 1009.1
20260507175856 15 40 8.0 16.1 0.00 0.25 0.08 80 1008.9
20260507175344 15 13 6.4 16.1 0.00 0.25 0.08 80 1008.9
20260507174847 15 35 6.4 16.1 0.00 0.25 0.08 80 1008.9
20260507174346 15 5 8.0 19.3 0.00 0.25 0.08 80 1008.9
20260507173841 15 16 8.0 19.3 0.00 0.25 0.08 81 1008.8
20260507173335 15 72 6.4 14.5 0.00 0.25 0.08 80 1008.9
20260507172841 15 355 8.0 17.7 0.00 0.25 0.08 80 1009.0
20260507172342 15 10 6.4 17.7 0.00 0.25 0.08 80 1008.9
20260507171837 16 344 6.4 12.9 0.00 0.25 0.08 80 1009.0
20260507171344 16 340 6.4 14.5 0.00 0.25 0.08 80 1008.9
20260507170836 16 16 6.4 16.1 0.00 0.25 0.08 80 1008.8
20260507170336 16 323 6.4 16.1 0.00 0.25 0.08 80 1008.7
20260507165845 16 0 6.4 14.5 0.00 0.25 0.08 80 1008.9
20260507165339 16 355 8.0 14.5 0.00 0.25 0.08 80 1008.9
20260507164840 16 342 6.4 17.7 0.00 0.25 0.08 80 1008.8
20260507164339 16 346 6.4 17.7 0.00 0.25 0.08 80 1008.7
20260507163832 16 290 6.4 16.1 0.00 0.25 0.08 80 1008.6
20260507163339 16 315 6.4 16.1 0.00 0.25 0.08 80 1008.5
20260507162833 16 279 6.4 16.1 0.00 0.25 0.08 81 1008.5
20260507162334 16 5 8.0 16.1 0.00 0.25 0.08 80 1008.6
20260507161836 16 346 8.0 17.7 0.00 0.25 0.08 80 1008.7
20260507161333 17 317 8.0 17.7 0.00 0.25 0.08 80 1008.8
20260507160837 17 42 8.0 16.1 0.00 0.25 0.08 80 1008.9
20260507160433 17 355 4.8 11.3 0.00 0.25 0.08 82 1008.8
20260507160328 17 348 8.0 17.7 0.00 0.25 0.08 80 1008.8
20260507155858 17 318 6.4 17.7 0.00 0.25 0.08 81 1008.9
20260507155406 17 38 8.0 17.7 0.00 0.25 0.08 82 1009.0
20260507154936 16 16 4.8 16.1 0.00 0.25 0.08 82 1008.8
20260507154400 17 334 4.8 12.9 0.00 0.25 0.08 82 1008.9
20260507153330 17 337 4.8 11.3 0.00 0.25 0.08 82 1008.8
20260507152825 17 311 6.4 14.5 0.00 0.25 0.08 82 1008.8
20260507152326 17 5 6.4 16.1 0.00 0.25 0.08 82 1008.7
20260507151826 17 15 6.4 16.1 0.00 0.25 0.08 82 1008.7
20260507151710 17 31 4.8 11.3 0.03 0.25 0.08 84 1008.9
20260507151614 17 22 4.8 11.3 0.03 0.25 0.08 84 1008.9
20260507151514 17 355 4.8 12.9 0.03 0.25 0.08 85 1008.8
20260507151335 17 344 4.8 12.9 0.00 0.25 0.08 82 1008.8
20260507150849 17 27 4.8 14.5 0.00 0.25 0.08 83 1008.8
20260507150418 17 5 3.2 14.5 0.03 0.25 0.08 83 1008.8
20260507145942 17 5 3.2 11.3 0.03 0.25 0.08 83 1008.9
20260507144342 17 355 4.8 12.9 0.03 0.25 0.08 84 1008.9
20260507143302 17 56 4.8 12.9 0.03 0.25 0.08 85 1008.7
20260507142748 17 26 3.2 12.9 0.03 0.25 0.08 86 1008.5
20260507142240 17 305 3.2 9.7 0.03 0.25 0.08 87 1008.7
20260507141740 17 48 3.2 11.3 0.03 0.25 0.08 88 1008.8
20260507141227 16 355 3.2 11.3 0.03 0.25 0.08 88 1008.6
20260507140726 16 28 3.2 8.0 0.03 0.25 0.08 89 1008.8
20260507140219 16 327 4.8 9.7 0.00 0.23 0.05 89 1008.7
20260507135709 16 36 4.8 9.7 0.00 0.23 0.05 89 1008.6
20260507135204 16 5 4.8 11.3 0.00 0.23 0.05 90 1008.6
20260507134702 16 346 4.8 11.3 0.00 0.23 0.05 90 1008.5
20260507134153 16 42 3.2 8.0 0.00 0.23 0.05 90 1008.4
20260507133652 16 22 3.2 8.0 0.00 0.23 0.05 90 1008.5
20260507133138 16 0 3.2 8.0 0.00 0.23 0.05 90 1008.6
20260507132638 15 24 3.2 8.0 0.00 0.23 0.05 90 1008.2
20260507132133 15 48 4.8 9.7 0.00 0.23 0.05 90 1008.7
20260507131622 15 39 3.2 9.7 0.00 0.23 0.05 90 1008.9
20260507131114 15 18 3.2 8.0 0.00 0.23 0.05 90 1009.1
20260507130616 15 48 3.2 6.4 0.00 0.23 0.05 90 1009.1
20260507130112 15 57 3.2 8.0 0.00 0.23 0.05 91 1009.0
20260507125607 16 30 4.8 11.3 0.00 0.23 0.05 91 1009.2
20260507125052 16 348 3.2 11.3 0.00 0.23 0.05 91 1009.4
20260507124546 16 345 3.2 6.4 0.00 0.23 0.05 91 1009.5
20260507124056 16 316 1.6 6.4 0.00 0.23 0.05 91 1009.5
20260507123538 16 298 0.0 6.4 0.00 0.23 0.05 91 1009.5
20260507123031 17 285 0.0 0.0 0.00 0.23 0.05 91 1009.3
20260507122526 17 5 0.0 0.0 0.00 0.23 0.05 91 1009.5
20260507122131 17 239 0.0 3.2 0.00 0.23 0.05 91 1009.5
20260507122022 17 332 0.0 0.0 0.00 0.23 0.05 91 1009.5
20260507121547 17 239 0.0 1.6 0.00 0.23 0.05 91 1009.6
20260507120502 17 248 0.0 3.2 0.00 0.23 0.05 91 1009.7
20260507115952 17 218 0.0 3.2 0.00 0.23 0.05 91 1009.7
20260507115450 17 248 0.0 3.2 0.00 0.23 0.05 91 1009.3
20260507114949 17 154 0.0 3.2 0.00 0.23 0.05 91 1009.0
20260507114821 17 173 0.0 3.2 0.00 0.23 0.05 91 1008.8
20260507114749 17 153 0.0 3.2 0.00 0.23 0.05 91 1008.9
20260507114500 17 154 1.6 6.4 0.00 0.23 0.05 91 1009.0
20260507114036 17 161 1.6 6.4 0.00 0.23 0.05 91 1008.7
20260507112434 17 340 0.0 1.6 0.00 0.23 0.05 91 1008.9
20260507112049 17 308 0.0 1.6 0.00 0.23 0.05 91 1008.6
20260507111940 17 340 0.0 1.6 0.00 0.23 0.05 91 1008.8
20260507111511 17 207 0.0 1.6 0.00 0.23 0.05 91 1008.9
20260507110941 17 148 0.0 0.0 0.00 0.23 0.05 91 1008.7
20260507110518 17 346 0.0 1.6 0.00 0.23 0.05 91 1008.6